Location: Stara Lesna
(49.1528°N, 20.2911°E)
Time: 09:46:12
(UTC+02:00)

S3M - Pass Details

Date: 21 September 2019
Orbit: 949 x 1004 km, 83.0° (Epoch: 20 October)

Event Time Altitude Azimuth Distance (km) Brightness Sun altitude
Rises 04:30:47 0° 351° (N) 3,649 7.2 -18.6°
Reaches altitude 10° 04:33:17 10° 354° (N) 2,704 6.5 -18.2°
Maximum altitude 04:39:29 74° 80° (E) 1,008 4.2 -17.3°
Drops below altitude 10° 04:45:43 10° 165° (SSE) 2,722 6.3 -16.4°
Sets 04:48:15 0° 167° (SSE) 3,674 6.9 -16.0°
